Flag for Germany Weather past 2 weeks in Demmin, Mecklenburg-Western Pomerania, Germany

Now
44 °F

Low clouds.


Feels Like: 42 °F
Forecast: 36 / 50 °F
Wind: 3 mph from West

Location: Greifswald

Current Time: Mar 6, 2015 at 9:12:15 PM

Latest Report: Mar 6, 2015 at 9:00 PM


Visibility: 3 mi

Pressure: 30.45 "Hg

Humidity: 93%

Dew point: 42 °F

Location of DemminLocation

Historic Weather in Demmin — Graph

°F

Demmin temperature yesterday

Maximum temperature yesterday: 42 °F (at 4:00 PM)
Minimum temperature yesterday: 33 °F (at 7:00 AM)
Average temperature yesterday: 38 °F

Past Weeks' High & Low Weather Summary

 TemperatureHumidityPressure
High49 °F (Feb 27, 3:00 PM)98% (Feb 26, 2:00 AM)30.51 "Hg (Feb 26, 2:00 AM)
Low29 °F (Feb 26, 3:00 AM)46% (Feb 26, 2:00 PM)29.26 "Hg (Feb 21, 3:00 PM)
Average38 °F81%29.86 "Hg
* Reported Feb 19 8:00 PM — Mar 6 8:00 PM, Demmin, Weather by CustomWeather, © 2015

Note: Actual official high and low records may vary slightly from our data, if they occured in-between our weather recording intervals... More about our weather records

Advertising

Demmin weather history for previous 24 hours

 ConditionsComfort  
Time TempWeatherWind HumidityBarometerVisibility
8:00 PM
Fri, Mar 6
44 °FLow clouds.5 mph95%30.46 "Hg2 mi
7:00 PM44 °FLow clouds.5 mph92%30.45 "Hg3 mi
6:00 PM46 °FLight rain. Overcast.5 mph83%30.44 "Hg6 mi
5:00 PM46 °FOvercast.3 mph82%30.43 "Hg11 mi
3:00 PM46 °FOvercast.6 mph79%30.43 "Hg16 mi
2:00 PM47 °FOvercast.5 mph74%30.43 "Hg9 mi
1:00 PM46 °FOvercast.3 mph76%30.44 "Hg9 mi
12:00 PM45 °FOvercast.5 mph78%30.45 "Hg8 mi
11:00 AM43 °FOvercast.5 mph82%30.45 "Hg7 mi
10:00 AM41 °FOvercast.5 mph88%30.45 "Hg6 mi
9:00 AM40 °FOvercast.5 mph89%30.46 "Hg6 mi
8:00 AM40 °FOvercast.3 mph88%30.46 "Hg8 mi
7:00 AM39 °FLight rain. Overcast.2 mph88%30.47 "Hg9 mi
6:00 AM38 °FOvercast.2 mph90%30.47 "Hg12 mi
5:00 AM37 °FOvercast.3 mph90%30.47 "Hg15 mi
4:00 AM38 °FOvercast.3 mph87%30.47 "Hg15 mi
3:00 AM37 °FOvercast.2 mph88%30.49 "Hg16 mi
2:00 AM36 °FOvercast.2 mph89%30.50 "Hg17 mi
1:00 AM35 °FOvercast.2 mph93%30.50 "Hg14 mi
12:00 AM36 °FPassing clouds.2 mph92%30.51 "Hg14 mi
10:00 PM
Thu, Mar 5
N/APassing clouds.N/AN/AN/A1 mi
9:00 PM37 °FPassing clouds.2 mph91%30.51 "Hg12 mi
Weather by CustomWeather, © 2015

See weather overviewHow to use our weather pages